| time (UTC) | temp C | wind direction | speed KPH | gust KPH | rain 1hr cm | rain 24hr cm | rain mn cm | humidity % | barometer mb |
| 20260506182514 | 15 | 300 | 9.7 | 17.7 | 0.00 | 0.00 | 0.00 | 43 | 1016.9 |
| 20260506182011 | 15 | 312 | 14.5 | 16.1 | 0.00 | 0.00 | 0.00 | 41 | 1017.0 |
| 20260506181509 | 15 | 263 | 8.0 | 11.3 | 0.00 | 0.00 | 0.00 | 41 | 1017.1 |
| 20260506181006 | 15 | 282 | 11.3 | 16.1 | 0.00 | 0.00 | 0.00 | 41 | 1017.1 |
| 20260506180502 | 13 | 231 | 1.6 | 12.9 | 0.00 | 0.00 | 0.00 | 46 | 1017.0 |
| 20260506175959 | 14 | 40 | 4.8 | 12.9 | 0.00 | 0.00 | 0.00 | 45 | 1017.2 |
| 20260506175455 | 15 | 247 | 3.2 | 4.8 | 0.00 | 0.00 | 0.00 | 45 | 1017.1 |
| 20260506174946 | 15 | 222 | 9.7 | 16.1 | 0.00 | 0.00 | 0.00 | 45 | 1017.1 |
| 20260506174444 | 14 | 251 | 3.2 | 16.1 | 0.00 | 0.00 | 0.00 | 46 | 1017.2 |
| 20260506173940 | 13 | 33 | 6.4 | 14.5 | 0.00 | 0.00 | 0.00 | 45 | 1017.1 |
| 20260506173438 | 14 | 276 | 8.0 | 12.9 | 0.00 | 0.00 | 0.00 | 46 | 1017.1 |
| 20260506172935 | 13 | 292 | 11.3 | 17.7 | 0.00 | 0.00 | 0.00 | 44 | 1017.2 |
| 20260506172432 | 13 | 249 | 3.2 | 9.7 | 0.00 | 0.00 | 0.00 | 47 | 1017.1 |
| 20260506171928 | 14 | 278 | 4.8 | 12.9 | 0.00 | 0.00 | 0.00 | 43 | 1017.3 |
| 20260506171426 | 13 | 213 | 3.2 | 8.0 | 0.00 | 0.00 | 0.00 | 46 | 1017.4 |
| 20260506170924 | 13 | 232 | 9.7 | 12.9 | 0.00 | 0.00 | 0.00 | 47 | 1017.5 |
| 20260506170419 | 13 | 124 | 3.2 | 12.9 | 0.00 | 0.00 | 0.00 | 50 | 1017.6 |
| 20260506165913 | 13 | 11 | 8.0 | 12.9 | 0.00 | 0.00 | 0.00 | 49 | 1017.5 |
| 20260506165411 | 13 | 223 | 4.8 | 12.9 | 0.00 | 0.00 | 0.00 | 51 | 1017.5 |
| 20260506164907 | 13 | 310 | 9.7 | 14.5 | 0.00 | 0.00 | 0.00 | 47 | 1017.7 |
| 20260506164403 | 13 | 12 | 3.2 | 3.2 | 0.00 | 0.00 | 0.00 | 46 | 1017.5 |
| 20260506163901 | 13 | 54 | 3.2 | 11.3 | 0.00 | 0.00 | 0.00 | 47 | 1017.3 |
| 20260506163356 | 13 | 211 | 4.8 | 9.7 | 0.00 | 0.00 | 0.00 | 48 | 1017.4 |
| 20260506162851 | 13 | 161 | 4.8 | 4.8 | 0.00 | 0.00 | 0.00 | 46 | 1017.2 |
| 20260506162349 | 13 | 62 | 6.4 | 17.7 | 0.00 | 0.00 | 0.00 | 46 | 1017.1 |
| 20260506161841 | 13 | 341 | 6.4 | 14.5 | 0.00 | 0.00 | 0.00 | 44 | 1017.1 |
| 20260506161338 | 13 | 232 | 4.8 | 8.0 | 0.00 | 0.00 | 0.00 | 45 | 1017.1 |
| 20260506160835 | 13 | 36 | 4.8 | 11.3 | 0.00 | 0.00 | 0.00 | 48 | 1016.7 |
| 20260506160332 | 13 | 237 | 1.6 | 11.3 | 0.00 | 0.00 | 0.00 | 51 | 1016.9 |
| 20260506155830 | 13 | 283 | 4.8 | 8.0 | 0.00 | 0.00 | 0.00 | 50 | 1016.6 |
| 20260506155326 | 13 | 190 | 1.6 | 1.6 | 0.00 | 0.00 | 0.00 | 52 | 1016.6 |
| 20260506153439 | 11 | 265 | 1.6 | 4.8 | 0.00 | 0.00 | 0.00 | 62 | 1016.6 |
| 20260506152937 | 11 | 47 | 3.2 | 8.0 | 0.00 | 0.00 | 0.00 | 63 | 1016.5 |
| 20260506152433 | 11 | 72 | 3.2 | 3.2 | 0.00 | 0.00 | 0.00 | 61 | 1016.5 |
| 20260506151932 | 11 | 36 | 1.6 | 4.8 | 0.00 | 0.00 | 0.00 | 63 | 1016.3 |
| 20260506151429 | 11 | 12 | 1.6 | 4.8 | 0.00 | 0.00 | 0.00 | 62 | 1016.4 |
| 20260506150926 | 11 | 12 | 3.2 | 3.2 | 0.00 | 0.00 | 0.00 | 62 | 1016.3 |
| 20260506150422 | 11 | 167 | 0.0 | 3.2 | 0.00 | 0.00 | 0.00 | 61 | 1016.3 |
| 20260506145919 | 10 | 70 | 3.2 | 4.8 | 0.00 | 0.00 | 0.00 | 61 | 1016.1 |
| 20260506145415 | 10 | 186 | 0.0 | 3.2 | 0.00 | 0.00 | 0.00 | 61 | 1016.2 |
| 20260506144913 | 10 | 246 | 1.6 | 4.8 | 0.00 | 0.00 | 0.00 | 64 | 1016.3 |
| 20260506144409 | 10 | 33 | 4.8 | 4.8 | 0.00 | 0.00 | 0.00 | 65 | 1016.1 |
| 20260506143908 | 10 | 53 | 1.6 | 4.8 | 0.00 | 0.00 | 0.00 | 65 | 1016.0 |
| 20260506143404 | 10 | 90 | 1.6 | 4.8 | 0.00 | 0.00 | 0.00 | 66 | 1015.9 |
| 20260506142903 | 10 | 52 | 3.2 | 4.8 | 0.00 | 0.00 | 0.00 | 62 | 1016.1 |
| 20260506142401 | 10 | 159 | 1.6 | 1.6 | 0.00 | 0.00 | 0.00 | 64 | 1016.1 |
| 20260506141858 | 10 | 130 | 1.6 | 3.2 | 0.00 | 0.00 | 0.00 | 65 | 1016.0 |
| 20260506141356 | 10 | 62 | 1.6 | 1.6 | 0.00 | 0.00 | 0.00 | 66 | 1016.0 |
| 20260506140854 | 9 | 122 | 0.0 | 1.6 | 0.00 | 0.00 | 0.00 | 68 | 1016.0 |
| 20260506140350 | 10 | 32 | 3.2 | 4.8 | 0.00 | 0.00 | 0.00 | 67 | 1016.1 |
| 20260506135848 | 9 | 219 | 0.0 | 3.2 | 0.00 | 0.00 | 0.00 | 70 | 1016.3 |
| 20260506135345 | 8 | 309 | 1.6 | 3.2 | 0.00 | 0.00 | 0.00 | 71 | 1016.2 |
| 20260506134841 | 8 | 237 | 0.0 | 3.2 | 0.00 | 0.00 | 0.00 | 73 | 1016.1 |
| 20260506134337 | 8 | 236 | 0.0 | 1.6 | 0.00 | 0.00 | 0.00 | 74 | 1016.1 |
| 20260506133834 | 8 | 222 | 0.0 | 0.0 | 0.00 | 0.00 | 0.00 | 74 | 1016.2 |
| 20260506133331 | 7 | 260 | 0.0 | 0.0 | 0.00 | 0.00 | 0.00 | 73 | 1016.0 |
| 20260506132828 | 7 | 40 | 0.0 | 1.6 | 0.00 | 0.00 | 0.00 | 73 | 1016.2 |
| 20260506132325 | 7 | 222 | 0.0 | 1.6 | 0.00 | 0.00 | 0.00 | 75 | 1016.4 |
| 20260506131823 | 7 | 225 | 0.0 | 1.6 | 0.00 | 0.00 | 0.00 | 75 | 1016.4 |
| 20260506131319 | 7 | 256 | 0.0 | 1.6 | 0.00 | 0.00 | 0.00 | 75 | 1016.2 |
| 20260506130816 | 7 | 300 | 0.0 | 4.8 | 0.00 | 0.00 | 0.00 | 75 | 1016.2 |
| 20260506130312 | 7 | 213 | 0.0 | 1.6 | 0.00 | 0.00 | 0.00 | 76 | 1016.2 |
| 20260506125811 | 7 | 234 | 1.6 | 1.6 | 0.00 | 0.00 | 0.00 | 75 | 1016.3 |
| 20260506125308 | 7 | 221 | 0.0 | 1.6 | 0.00 | 0.00 | 0.00 | 75 | 1016.0 |
| 20260506124807 | 7 | 230 | 1.6 | 3.2 | 0.00 | 0.00 | 0.00 | 75 | 1015.9 |
| 20260506124304 | 7 | 7 | 3.2 | 3.2 | 0.00 | 0.00 | 0.00 | 75 | 1015.7 |
| 20260506123801 | 7 | 149 | 0.0 | 3.2 | 0.00 | 0.00 | 0.00 | 75 | 1015.6 |
| 20260506123300 | 7 | 59 | 3.2 | 3.2 | 0.00 | 0.00 | 0.00 | 74 | 1015.5 |
| 20260506122756 | 7 | 259 | 1.6 | 3.2 | 0.00 | 0.00 | 0.00 | 75 | 1015.4 |
| 20260506122253 | 7 | 198 | 0.0 | 0.0 | 0.00 | 0.00 | 0.00 | 75 | 1015.1 |
| 20260506121751 | 7 | 201 | 0.0 | 0.0 | 0.00 | 0.00 | 0.00 | 75 | 1015.1 |
| 20260506121248 | 7 | 64 | 1.6 | 1.6 | 0.00 | 0.00 | 0.00 | 77 | 1015.0 |
| 20260506120745 | 6 | 20 | 1.6 | 8.0 | 0.00 | 0.00 | 0.00 | 77 | 1015.2 |
| 20260506120243 | 6 | 100 | 1.6 | 1.6 | 0.00 | 0.00 | 0.00 | 79 | 1015.1 |
| 20260506115740 | 6 | 227 | 0.0 | 1.6 | 0.00 | 0.00 | 0.00 | 80 | 1014.8 |
| 20260506115238 | 6 | 349 | 1.6 | 3.2 | 0.00 | 0.00 | 0.00 | 79 | 1014.8 |
| 20260506114736 | 6 | 355 | 3.2 | 3.2 | 0.00 | 0.00 | 0.00 | 79 | 1014.8 |
| 20260506114233 | 6 | 254 | 1.6 | 3.2 | 0.00 | 0.00 | 0.00 | 79 | 1014.5 |
| 20260506113732 | 6 | 224 | 0.0 | 1.6 | 0.00 | 0.00 | 0.00 | 79 | 1014.3 |
| 20260506113229 | 6 | 206 | 0.0 | 1.6 | 0.00 | 0.00 | 0.00 | 80 | 1014.1 |
| 20260506112725 | 6 | 220 | 0.0 | 0.0 | 0.00 | 0.00 | 0.00 | 80 | 1014.1 |
| 20260506112223 | 5 | 226 | 0.0 | 1.6 | 0.00 | 0.00 | 0.00 | 80 | 1013.8 |
| 20260506111720 | 5 | 241 | 0.0 | 3.2 | 0.00 | 0.00 | 0.00 | 81 | 1013.8 |
| 20260506111218 | 5 | 203 | 0.0 | 0.0 | 0.00 | 0.00 | 0.00 | 82 | 1013.9 |
| 20260506110714 | 5 | 210 | 0.0 | 0.0 | 0.00 | 0.00 | 0.00 | 81 | 1014.0 |
| 20260506110213 | 5 | 266 | 1.6 | 1.6 | 0.00 | 0.00 | 0.00 | 81 | 1013.9 |
| 20260506105709 | 5 | 208 | 0.0 | 1.6 | 0.00 | 0.00 | 0.00 | 80 | 1014.0 |
| 20260506105206 | 5 | 224 | 0.0 | 3.2 | 0.00 | 0.00 | 0.00 | 80 | 1013.6 |
| 20260506104704 | 5 | 272 | 1.6 | 3.2 | 0.00 | 0.00 | 0.00 | 81 | 1013.6 |
| 20260506104201 | 5 | 221 | 0.0 | 0.0 | 0.00 | 0.00 | 0.00 | 82 | 1013.5 |
| 20260506103658 | 5 | 206 | 0.0 | 0.0 | 0.00 | 0.00 | 0.00 | 84 | 1013.5 |
| 20260506103155 | 5 | 193 | 0.0 | 0.0 | 0.00 | 0.00 | 0.00 | 84 | 1013.3 |
| 20260506102653 | 5 | 202 | 0.0 | 1.6 | 0.00 | 0.00 | 0.00 | 84 | 1013.4 |
| 20260506102150 | 5 | 269 | 0.0 | 1.6 | 0.00 | 0.00 | 0.00 | 85 | 1013.6 |
| 20260506101647 | 5 | 230 | 0.0 | 3.2 | 0.00 | 0.00 | 0.00 | 87 | 1013.8 |
| 20260506101144 | 5 | 168 | 0.0 | 0.0 | 0.00 | 0.00 | 0.00 | 89 | 1013.5 |
| 20260506100642 | 5 | 196 | 0.0 | 0.0 | 0.00 | 0.00 | 0.00 | 91 | 1013.6 |
| 20260506100140 | 5 | 209 | 0.0 | 0.0 | 0.00 | 0.00 | 0.00 | 91 | 1013.7 |
| 20260506095638 | 5 | 201 | 0.0 | 0.0 | 0.00 | 0.00 | 0.00 | 92 | 1013.6 |
| 20260506095135 | 5 | 209 | 0.0 | 0.0 | 0.00 | 0.00 | 0.00 | 93 | 1013.6 |
| 20260506094632 | 5 | 225 | 0.0 | 1.6 | 0.00 | 0.00 | 0.00 | 94 | 1013.4 |
| 20260506094130 | 5 | 203 | 0.0 | 0.0 | 0.00 | 0.00 | 0.00 | 94 | 1013.5 |
| 20260506093628 | 5 | 206 | 0.0 | 0.0 | 0.00 | 0.00 | 0.00 | 94 | 1012.9 |
| 20260506093125 | 5 | 207 | 0.0 | 0.0 | 0.00 | 0.00 | 0.00 | 94 | 1012.9 |
| 20260506092623 | 5 | 214 | 0.0 | 0.0 | 0.00 | 0.00 | 0.00 | 94 | 1012.8 |
| 20260506092119 | 5 | 203 | 0.0 | 0.0 | 0.00 | 0.00 | 0.00 | 94 | 1012.4 |
| 20260506091618 | 5 | 199 | 0.0 | 0.0 | 0.00 | 0.00 | 0.00 | 93 | 1012.5 |
| 20260506091115 | 5 | 209 | 0.0 | 0.0 | 0.00 | 0.00 | 0.00 | 93 | 1012.4 |
| 20260506090613 | 5 | 206 | 0.0 | 0.0 | 0.00 | 0.00 | 0.00 | 92 | 1012.9 |
| 20260506090109 | 5 | 208 | 0.0 | 0.0 | 0.00 | 0.00 | 0.00 | 92 | 1013.2 |
| 20260506085606 | 5 | 207 | 0.0 | 0.0 | 0.00 | 0.00 | 0.00 | 92 | 1013.1 |
| 20260506085102 | 5 | 208 | 0.0 | 0.0 | 0.00 | 0.00 | 0.00 | 92 | 1013.2 |
| 20260506084559 | 5 | 208 | 0.0 | 0.0 | 0.00 | 0.00 | 0.00 | 92 | 1013.3 |
| 20260506084055 | 5 | 207 | 0.0 | 0.0 | 0.00 | 0.00 | 0.00 | 92 | 1013.4 |
| 20260506083553 | 5 | 207 | 0.0 | 0.0 | 0.00 | 0.00 | 0.00 | 93 | 1013.2 |
| 20260506083050 | 5 | 209 | 0.0 | 0.0 | 0.00 | 0.00 | 0.00 | 93 | 1013.2 |
| 20260506082546 | 5 | 210 | 0.0 | 0.0 | 0.00 | 0.00 | 0.00 | 93 | 1013.5 |
| 20260506082042 | 5 | 209 | 0.0 | 0.0 | 0.00 | 0.00 | 0.00 | 93 | 1013.3 |
| 20260506081541 | 5 | 209 | 0.0 | 0.0 | 0.00 | 0.00 | 0.00 | 93 | 1013.0 |
| 20260506081038 | 5 | 211 | 0.0 | 0.0 | 0.00 | 0.00 | 0.00 | 93 | 1012.8 |
| 20260506080535 | 5 | 209 | 0.0 | 0.0 | 0.00 | 0.00 | 0.00 | 93 | 1012.8 |
| 20260506073519 | 5 | 208 | 0.0 | 0.0 | 0.00 | 0.00 | 0.00 | 93 | 1012.8 |
| 20260506073016 | 5 | 207 | 0.0 | 0.0 | 0.00 | 0.00 | 0.00 | 94 | 1012.5 |
| 20260506072513 | 6 | 206 | 0.0 | 0.0 | 0.00 | 0.00 | 0.00 | 93 | 1012.6 |
| 20260506072010 | 6 | 211 | 0.0 | 0.0 | 0.00 | 0.00 | 0.00 | 93 | 1012.6 |
| 20260506071508 | 6 | 213 | 0.0 | 0.0 | 0.00 | 0.00 | 0.00 | 94 | 1012.4 |
| 20260506071005 | 6 | 205 | 0.0 | 0.0 | 0.00 | 0.00 | 0.00 | 94 | 1012.5 |
| 20260506070503 | 6 | 204 | 0.0 | 0.0 | 0.00 | 0.00 | 0.00 | 94 | 1012.8 |
| 20260506062440 | 7 | 221 | 0.0 | 0.0 | 0.00 | 0.00 | 0.00 | 93 | 1012.9 |
| 20260506061936 | 7 | 204 | 0.0 | 0.0 | 0.00 | 0.00 | 0.00 | 93 | 1012.3 |
| 20260506061432 | 6 | 203 | 0.0 | 0.0 | 0.00 | 0.00 | 0.00 | 93 | 1012.5 |
| 20260506060930 | 6 | 203 | 0.0 | 0.0 | 0.00 | 0.00 | 0.00 | 93 | 1012.4 |
| 20260506060428 | 6 | 203 | 0.0 | 0.0 | 0.00 | 0.00 | 0.00 | 92 | 1012.4 |
| 20260506051400 | 8 | 202 | 0.0 | 0.0 | 0.00 | 0.00 | 0.00 | 89 | 1012.9 |
| 20260506050857 | 8 | 202 | 0.0 | 0.0 | 0.00 | 0.00 | 0.00 | 88 | 1012.3 |
| 20260506050355 | 8 | 208 | 0.0 | 0.0 | 0.00 | 0.00 | 0.00 | 88 | 1012.6 |
| 20260506044845 | 8 | 204 | 0.0 | 0.0 | 0.00 | 0.13 | 0.13 | 87 | 1012.6 |
| 20260506044343 | 8 | 202 | 0.0 | 0.0 | 0.00 | 0.13 | 0.13 | 86 | 1012.2 |
| 20260506043840 | 8 | 202 | 0.0 | 0.0 | 0.00 | 0.13 | 0.13 | 86 | 1012.1 |
| 20260506043337 | 8 | 209 | 0.0 | 0.0 | 0.00 | 0.13 | 0.13 | 85 | 1012.3 |
| 20260506042835 | 8 | 191 | 0.0 | 0.0 | 0.00 | 0.13 | 0.13 | 84 | 1012.4 |
| 20260506042334 | 8 | 194 | 0.0 | 0.0 | 0.00 | 0.13 | 0.13 | 85 | 1012.1 |
| 20260506041833 | 8 | 206 | 0.0 | 0.0 | 0.00 | 0.13 | 0.13 | 85 | 1012.4 |
| 20260506041329 | 9 | 212 | 0.0 | 0.0 | 0.00 | 0.13 | 0.13 | 84 | 1012.1 |
| 20260506040826 | 9 | 217 | 0.0 | 0.0 | 0.00 | 0.13 | 0.13 | 83 | 1012.2 |
| 20260506040324 | 9 | 252 | 0.0 | 1.6 | 0.00 | 0.13 | 0.13 | 84 | 1012.3 |
| 20260506035820 | 9 | 207 | 0.0 | 0.0 | 0.00 | 0.13 | 0.13 | 82 | 1012.1 |
| 20260506035317 | 9 | 198 | 0.0 | 3.2 | 0.00 | 0.13 | 0.13 | 82 | 1012.5 |
| 20260506034814 | 9 | 154 | 1.6 | 3.2 | 0.00 | 0.13 | 0.13 | 82 | 1012.3 |
| 20260506034311 | 9 | 217 | 1.6 | 1.6 | 0.00 | 0.13 | 0.13 | 82 | 1012.9 |
| 20260506033808 | 9 | 222 | 0.0 | 0.0 | 0.00 | 0.13 | 0.13 | 83 | 1012.6 |
| 20260506033305 | 9 | 196 | 0.0 | 0.0 | 0.00 | 0.13 | 0.13 | 80 | 1012.5 |
| 20260506032802 | 9 | 171 | 0.0 | 0.0 | 0.00 | 0.13 | 0.13 | 80 | 1012.4 |
| 20260506032259 | 9 | 179 | 0.0 | 0.0 | 0.00 | 0.13 | 0.13 | 82 | 1012.5 |
| 20260506031755 | 9 | 200 | 0.0 | 0.0 | 0.00 | 0.13 | 0.13 | 82 | 1012.6 |
| 20260506031253 | 9 | 229 | 1.6 | 1.6 | 0.00 | 0.13 | 0.13 | 82 | 1013.0 |
| 20260506030751 | 9 | 174 | 1.6 | 1.6 | 0.00 | 0.13 | 0.13 | 81 | 1012.8 |
| 20260506030249 | 9 | 203 | 0.0 | 0.0 | 0.00 | 0.13 | 0.13 | 81 | 1012.9 |
| 20260506025745 | 9 | 208 | 0.0 | 0.0 | 0.00 | 0.13 | 0.13 | 80 | 1013.0 |
| 20260506025241 | 9 | 208 | 0.0 | 0.0 | 0.00 | 0.13 | 0.13 | 80 | 1012.8 |
| 20260506024739 | 9 | 208 | 0.0 | 0.0 | 0.00 | 0.13 | 0.13 | 80 | 1013.1 |
| 20260506024235 | 9 | 212 | 0.0 | 0.0 | 0.00 | 0.13 | 0.13 | 80 | 1012.6 |
| 20260506023731 | 8 | 206 | 0.0 | 0.0 | 0.00 | 0.13 | 0.13 | 82 | 1012.3 |
| 20260506023229 | 9 | 203 | 0.0 | 0.0 | 0.00 | 0.13 | 0.13 | 82 | 1012.4 |
| 20260506022725 | 9 | 205 | 0.0 | 0.0 | 0.00 | 0.13 | 0.13 | 81 | 1012.3 |
| 20260506022223 | 9 | 205 | 0.0 | 0.0 | 0.00 | 0.13 | 0.13 | 81 | 1012.1 |
| 20260506021721 | 9 | 195 | 0.0 | 0.0 | 0.00 | 0.13 | 0.13 | 81 | 1011.8 |
| 20260506021218 | 9 | 194 | 0.0 | 0.0 | 0.00 | 0.13 | 0.13 | 79 | 1011.8 |
| 20260506020714 | 9 | 194 | 0.0 | 0.0 | 0.00 | 0.13 | 0.13 | 78 | 1011.6 |
| 20260506020213 | 9 | 194 | 0.0 | 0.0 | 0.00 | 0.13 | 0.13 | 77 | 1011.5 |
| 20260506015710 | 9 | 210 | 0.0 | 0.0 | 0.00 | 0.13 | 0.13 | 76 | 1011.8 |
| 20260506015207 | 9 | 210 | 0.0 | 0.0 | 0.00 | 0.13 | 0.13 | 77 | 1011.8 |
| 20260506014704 | 9 | 210 | 0.0 | 0.0 | 0.00 | 0.13 | 0.13 | 77 | 1011.9 |
| 20260506014200 | 9 | 210 | 0.0 | 0.0 | 0.00 | 0.13 | 0.13 | 76 | 1011.8 |
| 20260506013658 | 9 | 211 | 0.0 | 0.0 | 0.00 | 0.13 | 0.13 | 77 | 1011.8 |
| 20260506013155 | 9 | 210 | 0.0 | 0.0 | 0.00 | 0.13 | 0.13 | 75 | 1011.6 |
| 20260506012651 | 9 | 214 | 0.0 | 0.0 | 0.00 | 0.13 | 0.13 | 78 | 1011.4 |
| 20260506012148 | 9 | 214 | 0.0 | 0.0 | 0.00 | 0.13 | 0.13 | 77 | 1011.3 |
| 20260506011645 | 9 | 214 | 0.0 | 0.0 | 0.00 | 0.13 | 0.13 | 76 | 1011.3 |
| 20260506011141 | 9 | 214 | 0.0 | 0.0 | 0.00 | 0.13 | 0.13 | 78 | 1011.1 |
| 20260506010640 | 9 | 214 | 0.0 | 0.0 | 0.00 | 0.13 | 0.13 | 75 | 1011.1 |
| 20260506010137 | 10 | 214 | 0.0 | 0.0 | 0.00 | 0.13 | 0.13 | 75 | 1011.1 |
| 20260506005634 | 10 | 214 | 0.0 | 0.0 | 0.00 | 0.13 | 0.13 | 74 | 1011.2 |
| 20260506005130 | 10 | 215 | 0.0 | 0.0 | 0.00 | 0.13 | 0.13 | 74 | 1011.0 |
| 20260506004627 | 10 | 214 | 0.0 | 0.0 | 0.00 | 0.13 | 0.13 | 75 | 1011.0 |
| 20260506004124 | 10 | 215 | 0.0 | 0.0 | 0.00 | 0.13 | 0.13 | 73 | 1010.8 |
| 20260506003620 | 10 | 215 | 0.0 | 0.0 | 0.00 | 0.13 | 0.13 | 71 | 1010.7 |
| 20260506003116 | 10 | 226 | 0.0 | 1.6 | 0.00 | 0.13 | 0.13 | 70 | 1010.8 |
| 20260506002612 | 10 | 228 | 0.0 | 1.6 | 0.00 | 0.13 | 0.13 | 70 | 1010.6 |
| 20260506002109 | 10 | 288 | 1.6 | 3.2 | 0.00 | 0.13 | 0.13 | 68 | 1010.8 |
| 20260506001605 | 10 | 232 | 0.0 | 3.2 | 0.00 | 0.13 | 0.13 | 67 | 1010.6 |
| 20260506001102 | 10 | 174 | 0.0 | 0.0 | 0.00 | 0.13 | 0.13 | 67 | 1010.5 |
| 20260506000600 | 10 | 258 | 0.0 | 1.6 | 0.00 | 0.13 | 0.13 | 68 | 1010.8 |
| 20260506000057 | 10 | 47 | 0.0 | 1.6 | 0.00 | 0.13 | 0.13 | 67 | 1010.6 |
| 20260505235555 | 10 | 236 | 0.0 | 0.0 | 0.00 | 0.13 | 0.13 | 69 | 1010.7 |
| 20260505235052 | 10 | 265 | 1.6 | 3.2 | 0.00 | 0.13 | 0.13 | 68 | 1010.9 |
| 20260505234548 | 10 | 346 | 0.0 | 3.2 | 0.00 | 0.13 | 0.13 | 69 | 1010.9 |
| 20260505234045 | 10 | 302 | 0.0 | 3.2 | 0.00 | 0.13 | 0.13 | 69 | 1011.1 |
| 20260505233543 | 10 | 311 | 3.2 | 3.2 | 0.00 | 0.13 | 0.13 | 72 | 1011.1 |
| 20260505233040 | 10 | 274 | 1.6 | 1.6 | 0.00 | 0.13 | 0.13 | 79 | 1011.1 |
| 20260505232538 | 10 | 176 | 0.0 | 0.0 | 0.00 | 0.13 | 0.13 | 78 | 1011.1 |
| 20260505232035 | 10 | 214 | 0.0 | 3.2 | 0.00 | 0.13 | 0.13 | 79 | 1011.1 |
| 20260505231531 | 10 | 222 | 1.6 | 1.6 | 0.00 | 0.13 | 0.13 | 78 | 1011.1 |
| 20260505231030 | 10 | 212 | 0.0 | 1.6 | 0.00 | 0.13 | 0.13 | 78 | 1010.9 |
| 20260505230527 | 10 | 214 | 0.0 | 3.2 | 0.00 | 0.13 | 0.13 | 77 | 1011.0 |
| 20260505230024 | 10 | 225 | 1.6 | 1.6 | 0.00 | 0.13 | 0.13 | 78 | 1010.8 |
| 20260505225521 | 10 | 260 | 0.0 | 1.6 | 0.00 | 0.13 | 0.13 | 78 | 1010.9 |
| 20260505225017 | 10 | 208 | 0.0 | 0.0 | 0.00 | 0.13 | 0.13 | 78 | 1011.1 |
| 20260505224514 | 10 | 203 | 0.0 | 1.6 | 0.00 | 0.13 | 0.13 | 78 | 1010.9 |
| 20260505224011 | 10 | 210 | 0.0 | 1.6 | 0.00 | 0.13 | 0.13 | 78 | 1010.8 |
| 20260505223508 | 10 | 248 | 1.6 | 1.6 | 0.00 | 0.13 | 0.13 | 78 | 1010.7 |
| 20260505223004 | 10 | 206 | 0.0 | 0.0 | 0.00 | 0.13 | 0.13 | 79 | 1010.9 |
| 20260505222501 | 10 | 204 | 0.0 | 0.0 | 0.00 | 0.13 | 0.13 | 79 | 1010.9 |
| 20260505221956 | 10 | 219 | 0.0 | 1.6 | 0.00 | 0.13 | 0.13 | 78 | 1010.8 |
| 20260505221454 | 10 | 255 | 1.6 | 3.2 | 0.00 | 0.13 | 0.13 | 78 | 1010.9 |
| 20260505220951 | 10 | 232 | 0.0 | 1.6 | 0.00 | 0.13 | 0.13 | 79 | 1010.7 |
| 20260505220448 | 10 | 131 | 1.6 | 1.6 | 0.00 | 0.13 | 0.13 | 79 | 1010.8 |
| 20260505215945 | 10 | 264 | 1.6 | 3.2 | 0.00 | 0.13 | 0.13 | 79 | 1010.9 |
| 20260505215444 | 10 | 234 | 0.0 | 1.6 | 0.00 | 0.13 | 0.13 | 79 | 1011.0 |
| 20260505214941 | 10 | 245 | 0.0 | 3.2 | 0.00 | 0.13 | 0.13 | 77 | 1010.9 |
| 20260505214439 | 10 | 93 | 0.0 | 3.2 | 0.00 | 0.13 | 0.13 | 74 | 1010.9 |
| 20260505213936 | 10 | 186 | 0.0 | 1.6 | 0.00 | 0.13 | 0.13 | 74 | 1011.0 |
| 20260505213433 | 10 | 259 | 1.6 | 1.6 | 0.00 | 0.13 | 0.13 | 74 | 1011.0 |
| 20260505212929 | 10 | 263 | 1.6 | 3.2 | 0.00 | 0.13 | 0.13 | 74 | 1011.2 |
| 20260505212426 | 10 | 145 | 1.6 | 1.6 | 0.00 | 0.13 | 0.13 | 74 | 1011.2 |
| 20260505211922 | 10 | 45 | 1.6 | 3.2 | 0.00 | 0.13 | 0.13 | 73 | 1011.1 |
| 20260505211420 | 10 | 245 | 0.0 | 3.2 | 0.00 | 0.13 | 0.13 | 76 | 1011.4 |
| 20260505210916 | 10 | 249 | 1.6 | 3.2 | 0.00 | 0.13 | 0.13 | 74 | 1011.4 |
| 20260505210414 | 10 | 87 | 1.6 | 3.2 | 0.00 | 0.13 | 0.13 | 75 | 1011.3 |
| 20260505205910 | 10 | 178 | 0.0 | 0.0 | 0.00 | 0.13 | 0.13 | 76 | 1011.5 |
| 20260505205409 | 10 | 183 | 0.0 | 0.0 | 0.00 | 0.13 | 0.13 | 76 | 1011.7 |
| 20260505204905 | 10 | 206 | 0.0 | 0.0 | 0.00 | 0.13 | 0.13 | 79 | 1011.8 |
| 20260505204403 | 10 | 207 | 0.0 | 0.0 | 0.00 | 0.13 | 0.13 | 80 | 1011.9 |
| 20260505203900 | 10 | 220 | 1.6 | 1.6 | 0.00 | 0.13 | 0.13 | 80 | 1012.0 |
| 20260505203356 | 10 | 253 | 1.6 | 3.2 | 0.00 | 0.13 | 0.13 | 79 | 1012.1 |
| 20260505202853 | 10 | 213 | 0.0 | 0.0 | 0.00 | 0.13 | 0.13 | 80 | 1012.0 |
| 20260505202349 | 10 | 358 | 3.2 | 3.2 | 0.00 | 0.13 | 0.13 | 78 | 1012.2 |
| 20260505201846 | 10 | 78 | 1.6 | 1.6 | 0.00 | 0.13 | 0.13 | 78 | 1012.2 |
| 20260505201343 | 10 | 183 | 0.0 | 3.2 | 0.00 | 0.13 | 0.13 | 76 | 1012.3 |
| 20260505200842 | 10 | 313 | 1.6 | 3.2 | 0.00 | 0.13 | 0.13 | 77 | 1012.3 |
| 20260505200338 | 10 | 238 | 0.0 | 4.8 | 0.18 | 0.13 | 0.13 | 79 | 1012.3 |
| 20260505195834 | 10 | 285 | 1.6 | 3.2 | 0.18 | 0.13 | 0.13 | 79 | 1012.4 |
| 20260505195331 | 10 | 288 | 4.8 | 4.8 | 0.00 | 0.10 | 0.10 | 79 | 1012.6 |
| 20260505194828 | 10 | 256 | 1.6 | 3.2 | 0.00 | 0.10 | 0.10 | 82 | 1012.5 |
| 20260505194325 | 10 | 241 | 1.6 | 1.6 | 0.13 | 0.10 | 0.10 | 83 | 1012.3 |
| 20260505193820 | 10 | 209 | 0.0 | 1.6 | 0.13 | 0.10 | 0.10 | 83 | 1012.5 |
| 20260505193319 | 10 | 254 | 1.6 | 4.8 | 0.18 | 0.08 | 0.08 | 81 | 1012.5 |
| 20260505192816 | 10 | 240 | 1.6 | 3.2 | 0.18 | 0.08 | 0.08 | 81 | 1012.4 |
| 20260505192315 | 10 | 101 | 1.6 | 3.2 | 0.13 | 0.05 | 0.05 | 78 | 1012.8 |
| 20260505191812 | 10 | 235 | 0.0 | 3.2 | 0.13 | 0.05 | 0.05 | 77 | 1012.4 |
| 20260505191310 | 10 | 92 | 3.2 | 8.0 | 0.00 | 0.03 | 0.03 | 72 | 1012.4 |
| 20260505190806 | 10 | 341 | 4.8 | 4.8 | 0.00 | 0.03 | 0.03 | 68 | 1012.3 |
| 20260505190302 | 10 | 19 | 4.8 | 11.3 | 0.00 | 0.03 | 0.03 | 66 | 1012.3 |
| 20260505185758 | 11 | 288 | 4.8 | 12.9 | 0.00 | 0.03 | 0.03 | 67 | 1012.5 |
| 20260505185254 | 11 | 316 | 6.4 | 9.7 | 0.00 | 0.03 | 0.03 | 68 | 1012.3 |
| 20260505184750 | 11 | 276 | 3.2 | 4.8 | 0.00 | 0.03 | 0.03 | 71 | 1012.0 |
| 20260505184248 | 11 | 100 | 0.0 | 4.8 | 0.00 | 0.03 | 0.03 | 73 | 1012.0 |
| 20260505183744 | 11 | 13 | 6.4 | 14.5 | 0.00 | 0.03 | 0.03 | 72 | 1011.9 |
| 20260505183242 | 11 | 309 | 8.0 | 12.9 | 0.00 | 0.03 | 0.03 | 72 | 1012.1 |
| 20260505182738 | 11 | 336 | 1.6 | 12.9 | 0.00 | 0.03 | 0.03 | 74 | 1012.0 |